EW4141 Baiting Hollow NY US current weather conditions

sailwx.info

Wind from 301 at 18 knots gusting 27

Air temperature 2.8° C
Dewpoint -4.0° C

Last reported at 2019-Dec-06 04:10 UTC.
Time now 2019-Dec-06 05:15 UTC

Location: N 40°59' W 072°43'.
View on Google Maps.

See reports from other nearby stations

  
Tides and Currents Weather Stations Pressure Air Temp Water Temp Dewpoint Dewpoint Depression Visibility Wind Speed Wind Dir Waves Ship Positions
date/time (UTC)wind fromknots sea level pressurealtimeterstation pressurevisibilityair tempwater tempwave heightnotes
2019-Dec-06 04:10 301 18 gusting 27 2.8
2019-Dec-06 04:05 297 18 gusting 27 2.8
2019-Dec-06 04:00 300 17 gusting 24 2.8
2019-Dec-06 03:55 304 19 gusting 28 2.8
2019-Dec-06 03:50 304 20 gusting 29 2.8
2019-Dec-06 03:45 303 21 gusting 30 2.8
2019-Dec-06 03:40 302 21 gusting 30 2.8
2019-Dec-06 03:35 301 20 gusting 29 2.8
2019-Dec-06 03:30 302 20 gusting 32 2.8
2019-Dec-06 03:25 300 20 gusting 32 3.3
2019-Dec-06 03:20 298 19 gusting 30 3.3
2019-Dec-06 03:15 297 19 gusting 30 3.3
2019-Dec-06 03:10 299 19 gusting 31 3.3
2019-Dec-06 03:05 299 20 gusting 31 3.3
2019-Dec-06 03:00 298 19 gusting 30 3.3
2019-Dec-06 02:55 302 19 gusting 30 3.3
2019-Dec-06 02:50 303 19 gusting 30 3.3
2019-Dec-06 02:45 308 18 gusting 25 2.8
2019-Dec-06 02:40 296 19 gusting 27 3.3
2019-Dec-06 02:35 294 19 gusting 27 3.3
2019-Dec-06 02:30 296 19 gusting 30 3.3
2019-Dec-06 02:25 300 22 gusting 32 3.3
2019-Dec-06 02:20 300 23 gusting 32 3.3
2019-Dec-06 02:15 297 21 gusting 32 3.3
2019-Dec-06 02:10 297 20 gusting 32 3.3
2019-Dec-06 02:05 296 20 gusting 29 3.3
2019-Dec-06 02:00 296 20 gusting 28 3.3
2019-Dec-06 01:55 298 20 gusting 28 3.3
2019-Dec-06 01:50 299 21 gusting 29 3.3
2019-Dec-06 01:45 300 20 gusting 30 3.3
2019-Dec-06 01:40 299 19 gusting 30 3.3
2019-Dec-06 01:35 295 19 gusting 29 3.3
2019-Dec-06 01:30 293 19 gusting 29 3.3
2019-Dec-06 01:25 296 20 gusting 33 3.3
2019-Dec-06 01:20 298 20 gusting 33 3.3
2019-Dec-06 01:15 295 21 gusting 31 3.3
2019-Dec-06 01:10 295 23 gusting 33 3.3
2019-Dec-06 01:05 295 24 gusting 34 3.3
2019-Dec-06 01:00 295 24 gusting 36 3.3
2019-Dec-06 00:55 297 25 gusting 37 3.3
2019-Dec-06 00:50 297 25 gusting 37 3.3
2019-Dec-06 00:45 295 23 gusting 37 3.3
2019-Dec-06 00:40 292 21 gusting 33 3.3
2019-Dec-06 00:35 293 19 gusting 28 3.3
2019-Dec-06 00:30 289 17 gusting 28 3.3
2019-Dec-06 00:25 283 16 gusting 25 3.3
2019-Dec-06 00:20 289 15 gusting 25 3.3
2019-Dec-06 00:15 332 13 gusting 24 3.3
2019-Dec-06 00:10 295 17 gusting 27 3.3
2019-Dec-06 00:05 296 19 gusting 30 3.9
2019-Dec-06 00:00 297 19 gusting 30 3.3
2019-Dec-05 23:55 298 19 gusting 28 3.3
2019-Dec-05 23:50 296 19 gusting 27 3.3
2019-Dec-05 23:45 297 17 gusting 27 3.3
2019-Dec-05 23:40 298 16 gusting 26 3.9
2019-Dec-05 23:35 298 17 gusting 26 3.9
2019-Dec-05 23:30 297 18 gusting 25 3.9
2019-Dec-05 23:25 296 19 gusting 26 3.9
2019-Dec-05 23:20 295 19 gusting 26 3.9
2019-Dec-05 23:15 297 19 gusting 31 3.9
2019-Dec-05 23:10 298 21 gusting 31 3.9
2019-Dec-05 23:05 295 21 gusting 30 3.9
2019-Dec-05 23:00 291 19 gusting 28 3.9
2019-Dec-05 22:55 288 19 gusting 30 3.9
2019-Dec-05 22:50 287 19 gusting 30 3.9
2019-Dec-05 22:45 285 19 gusting 27 3.9
2019-Dec-05 22:40 287 19 gusting 28 4.4
2019-Dec-05 22:35 290 19 gusting 28 4.4
2019-Dec-05 22:30 293 19 gusting 28 4.4
2019-Dec-05 22:25 297 18 gusting 30 4.4
2019-Dec-05 22:20 298 20 gusting 33 4.4
2019-Dec-05 22:15 294 22 gusting 33 4.4
2019-Dec-05 22:10 297 24 gusting 32 4.4
2019-Dec-05 22:05 303 24 gusting 35 4.4
2019-Dec-05 22:00 300 22 gusting 35 4.4
2019-Dec-05 21:55 297 22 gusting 33 4.4
2019-Dec-05 21:50 295 22 gusting 33 4.4
2019-Dec-05 21:45 292 19 gusting 33 4.4
2019-Dec-05 21:40 294 18 gusting 28 4.4
2019-Dec-05 21:35 295 19 gusting 27 4.4
2019-Dec-05 21:30 295 20 gusting 29 4.4
2019-Dec-05 21:25 296 21 gusting 29 4.4
2019-Dec-05 21:20 299 20 gusting 29 4.4
2019-Dec-05 21:15 332 19 gusting 32 4.4
2019-Dec-05 21:10 302 26 gusting 34 4.4
2019-Dec-05 21:05 300 24 gusting 33 4.4
2019-Dec-05 21:00 297 19 gusting 30 4.4
2019-Dec-05 20:55 295 18 gusting 28 4.4
2019-Dec-05 20:50 295 19 gusting 27 4.4
2019-Dec-05 20:45 294 18 gusting 27 4.4
2019-Dec-05 20:40 295 19 gusting 27 5.0
2019-Dec-05 20:35 298 19 gusting 30 5.0
2019-Dec-05 20:30 300 20 gusting 30 5.0
2019-Dec-05 20:25 303 20 gusting 30 4.4
2019-Dec-05 20:20 306 18 gusting 27 4.4
2019-Dec-05 20:15 306 19 gusting 28 4.4
2019-Dec-05 20:10 306 19 gusting 28 5.0
2019-Dec-05 20:05 305 20 gusting 27 5.0
2019-Dec-05 20:00 305 24 gusting 31 4.4
2019-Dec-05 19:55 306 26 gusting 32 4.4
2019-Dec-05 19:50 307 26 gusting 33 4.4
2019-Dec-05 19:45 309 28 gusting 35 4.4
2019-Dec-05 19:40 310 30 gusting 38 4.4
2019-Dec-05 19:35 308 32 gusting 38 4.4
2019-Dec-05 19:30 305 33 gusting 39 4.4
2019-Dec-05 19:25 303 31 gusting 39 5.0
2019-Dec-05 19:20 304 28 gusting 38 5.0
2019-Dec-05 19:15 303 24 gusting 36 5.0
2019-Dec-05 19:10 300 20 gusting 29 5.0
2019-Dec-05 19:05 300 21 gusting 30 5.0
2019-Dec-05 19:00 299 22 gusting 30 5.0
2019-Dec-05 18:55 301 22 gusting 34 5.0
2019-Dec-05 18:50 303 22 gusting 34 5.0
2019-Dec-05 18:45 303 19 gusting 28 5.0
2019-Dec-05 18:40 301 19 gusting 29 5.0
2019-Dec-05 18:35 297 18 gusting 29 5.0
2019-Dec-05 18:30 296 17 gusting 26 5.0
2019-Dec-05 18:25 298 18 gusting 26 5.0
2019-Dec-05 18:20 297 18 gusting 26 5.0
2019-Dec-05 18:15 295 18 gusting 26 5.0
2019-Dec-05 18:10 295 18 gusting 26 5.0
2019-Dec-05 18:05 296 19 gusting 29 5.0
2019-Dec-05 18:00 293 19 gusting 29 5.0
2019-Dec-05 17:55 284 18 gusting 26 5.0
2019-Dec-05 17:50 282 17 gusting 25 5.0
2019-Dec-05 17:45 285 16 gusting 24 5.6
2019-Dec-05 17:40 286 17 gusting 25 5.6
2019-Dec-05 17:35 284 17 gusting 25 5.6
2019-Dec-05 17:30 282 17 gusting 25 5.6
2019-Dec-05 17:25 285 17 gusting 27 5.6
2019-Dec-05 17:20 288 17 gusting 27 5.6
2019-Dec-05 17:15 291 18 gusting 27 5.6
2019-Dec-05 17:10 291 17 gusting 27 5.0
2019-Dec-05 17:05 292 16 gusting 25 5.6
2019-Dec-05 17:00 293 16 gusting 25 5.6
2019-Dec-05 16:55 291 17 gusting 27 5.0
2019-Dec-05 16:50 288 17 gusting 27 5.0
2019-Dec-05 16:45 289 16 gusting 25 5.0
2019-Dec-05 16:40 291 16 gusting 26 5.0
2019-Dec-05 16:35 288 17 gusting 26 5.0
2019-Dec-05 16:30 285 17 gusting 24 5.0
2019-Dec-05 16:25 287 16 gusting 24 5.0
2019-Dec-05 16:20 286 15 gusting 22 4.4
2019-Dec-05 16:15 282 15 gusting 26 4.4
2019-Dec-05 16:10 282 16 gusting 26 4.4
2019-Dec-05 16:05 286 16 gusting 27 4.4
2019-Dec-05 16:00 290 17 gusting 27 4.4
2019-Dec-05 15:55 292 18 gusting 26 4.4
2019-Dec-05 15:50 291 17 gusting 26 4.4
2019-Dec-05 15:45 293 17 gusting 26 4.4
2019-Dec-05 15:40 292 17 gusting 26 4.4
2019-Dec-05 15:35 290 17 gusting 25 4.4
2019-Dec-05 15:30 288 16 gusting 23 4.4
2019-Dec-05 15:25 287 16 gusting 23 4.4
2019-Dec-05 15:20 290 15 gusting 23 4.4
2019-Dec-05 15:15 289 14 gusting 22 4.4
2019-Dec-05 15:10 289 15 gusting 25 4.4
2019-Dec-05 15:05 287 16 gusting 26 4.4
2019-Dec-05 15:00 287 16 gusting 26 4.4
2019-Dec-05 14:55 286 15 gusting 25 4.4
2019-Dec-05 14:50 285 14 gusting 23 4.4
2019-Dec-05 14:45 308 13 gusting 23 3.9
2019-Dec-05 14:40 285 14 gusting 24 4.4
2019-Dec-05 14:35 286 13 gusting 24 4.4
2019-Dec-05 14:30 288 13 gusting 19 4.4
2019-Dec-05 14:25 287 13 gusting 20 4.4
2019-Dec-05 14:20 287 14 gusting 21 4.4
2019-Dec-05 14:15 288 15 gusting 23 4.4
2019-Dec-05 14:10 287 15 gusting 23 4.4
2019-Dec-05 14:05 287 14 gusting 22 4.4
2019-Dec-05 14:00 287 14 gusting 22 4.4
2019-Dec-05 13:55 287 14 gusting 24 4.4
2019-Dec-05 13:50 287 13 gusting 24 4.4
2019-Dec-05 13:45 284 14 gusting 23 4.4
2019-Dec-05 13:40 283 13 gusting 23 4.4
2019-Dec-05 13:35 286 13 gusting 20 4.4
2019-Dec-05 13:30 286 14 gusting 20 4.4
2019-Dec-05 13:25 286 14 gusting 21 4.4
2019-Dec-05 13:20 290 14 gusting 21 3.9
2019-Dec-05 13:15 293 13 gusting 21 3.9
2019-Dec-05 13:10 292 12 gusting 20 3.9
2019-Dec-05 13:05 291 12 gusting 20 3.9
2019-Dec-05 13:00 292 13 gusting 20 3.9
2019-Dec-05 12:55 293 13 gusting 19 3.9
2019-Dec-05 12:50 292 12 gusting 19 3.9
2019-Dec-05 12:45 295 12 gusting 19 3.9
2019-Dec-05 12:40 298 13 gusting 19 3.9
2019-Dec-05 12:35 296 14 gusting 19 3.9
2019-Dec-05 12:30 299 15 gusting 20 3.9
2019-Dec-05 12:25 304 17 gusting 22 3.9
2019-Dec-05 12:20 301 17 gusting 22 3.9
2019-Dec-05 12:15 301 18 gusting 22 3.9
2019-Dec-05 12:10 304 18 gusting 23 3.9
2019-Dec-05 12:05 305 18 gusting 24 3.9
2019-Dec-05 12:00 303 19 gusting 24 3.9
2019-Dec-05 11:55 304 19 gusting 26 3.9
2019-Dec-05 11:50 304 18 gusting 26 3.9
2019-Dec-05 11:45 302 17 gusting 23 3.9
2019-Dec-05 11:40 299 16 gusting 22 3.9
2019-Dec-05 11:35 301 16 gusting 22 3.9
2019-Dec-05 11:30 301 16 gusting 22 3.9
2019-Dec-05 11:25 303 16 gusting 22 3.9
2019-Dec-05 11:20 305 18 gusting 23 3.9
2019-Dec-05 11:15 305 18 gusting 23 3.9
2019-Dec-05 11:10 305 17 gusting 23 3.9
2019-Dec-05 11:05 302 16 gusting 22 3.9
2019-Dec-05 11:00 322 13 gusting 22 3.9
2019-Dec-05 10:55 303 16 gusting 23 3.9
2019-Dec-05 10:50 301 15 gusting 24 3.9
2019-Dec-05 10:45 299 15 gusting 24 3.9
2019-Dec-05 10:40 302 16 gusting 22 3.9
2019-Dec-05 10:35 301 16 gusting 22 3.9
2019-Dec-05 10:30 300 15 gusting 21 3.9
2019-Dec-05 10:25 303 15 gusting 22 3.9
2019-Dec-05 10:20 301 14 gusting 22 3.9
2019-Dec-05 10:15 300 14 gusting 22 3.9
2019-Dec-05 10:10 296 13 gusting 20 3.9
2019-Dec-05 10:05 295 13 gusting 21 3.9
2019-Dec-05 10:00 300 14 gusting 21 3.9
2019-Dec-05 09:55 298 14 gusting 21 3.9
2019-Dec-05 09:50 294 14 gusting 21 3.9
2019-Dec-05 09:45 293 14 gusting 21 3.9
2019-Dec-05 09:40 293 13 gusting 21 3.9
2019-Dec-05 09:35 294 12 gusting 19 3.3
2019-Dec-05 09:30 287 9 gusting 19 3.3
2019-Dec-05 09:25 267 8 gusting 19 3.3
2019-Dec-05 09:20 260 9 gusting 15 3.3
2019-Dec-05 09:15 263 8 gusting 15 3.3
2019-Dec-05 09:10 297 8 gusting 14 3.3
2019-Dec-05 09:05 303 13 gusting 19 3.3
2019-Dec-05 09:00 300 13 gusting 19 3.3
2019-Dec-05 08:55 287 13 gusting 19 3.3
2019-Dec-05 08:50 291 13 gusting 20 3.3
2019-Dec-05 08:45 292 11 gusting 20 3.3
2019-Dec-05 08:40 283 8 gusting 18 2.8
2019-Dec-05 08:35 270 7 gusting 15 2.8
2019-Dec-05 08:30 256 6 gusting 12 2.8
2019-Dec-05 08:25 248 6 gusting 13 2.8
2019-Dec-05 08:20 244 5 gusting 13 2.8
2019-Dec-05 08:15 241 5 gusting 11 2.8
2019-Dec-05 08:10 241 6 gusting 13 2.8
2019-Dec-05 08:05 244 6 gusting 13 2.8
2019-Dec-05 08:00 241 6 gusting 12 2.8
2019-Dec-05 07:55 232 5 gusting 12 2.8
2019-Dec-05 07:50 221 5 gusting 10 3.3
2019-Dec-05 07:45 224 5 gusting 15 3.3
2019-Dec-05 07:40 237 6 gusting 15 3.3
2019-Dec-05 07:35 249 6 gusting 13 3.3
2019-Dec-05 07:30 252 7 gusting 13 3.3
2019-Dec-05 07:25 251 6 gusting 13 3.3
2019-Dec-05 07:20 252 7 gusting 14 3.3
2019-Dec-05 07:15 256 7 gusting 14 3.3
2019-Dec-05 07:10 260 6 gusting 13 3.3
2019-Dec-05 07:05 257 7 gusting 13 3.3
2019-Dec-05 07:00 255 6 gusting 13 3.3
2019-Dec-05 06:55 255 6 gusting 13 3.3
2019-Dec-05 06:50 254 6 gusting 13 3.3
2019-Dec-05 06:45 256 6 gusting 13 3.3
2019-Dec-05 06:40 261 6 gusting 11 3.3
2019-Dec-05 06:35 263 6 gusting 12 3.3
2019-Dec-05 06:30 259 6 gusting 13 3.3
2019-Dec-05 06:25 254 6 gusting 13 3.3
2019-Dec-05 06:20 254 6 gusting 13 3.3
2019-Dec-05 06:15 254 6 gusting 13 2.8
2019-Dec-05 06:10 252 6 gusting 12 2.8
2019-Dec-05 06:05 254 6 gusting 13 2.8
2019-Dec-05 06:00 254 7 gusting 13 2.8
2019-Dec-05 05:55 253 7 gusting 13 2.8
2019-Dec-05 05:50 253 6 gusting 13 2.8
2019-Dec-05 05:45 248 6 gusting 13 2.8
2019-Dec-05 05:40 244 6 gusting 12 2.8
2019-Dec-05 05:35 245 6 gusting 11 2.8
2019-Dec-05 05:30 252 6 gusting 14 2.8
2019-Dec-05 05:25 244 6 gusting 14 2.8
2019-Dec-05 05:20 245 6 gusting 14 2.8
2019-Dec-05 05:15 245 6 gusting 10 2.8
2019-Dec-05 05:10 242 6 gusting 13 2.8
2019-Dec-05 05:05 243 6 gusting 13 2.8
2019-Dec-05 05:00 240 5 gusting 11 2.8
2019-Dec-05 04:55 236 5 gusting 13 2.2
2019-Dec-05 04:50 238 6 gusting 13 2.2
2019-Dec-05 04:45 235 6 gusting 13 2.2
2019-Dec-05 04:40 229 6 gusting 13 2.2
2019-Dec-05 04:35 231 6 gusting 13 2.2
2019-Dec-05 04:30 236 6 gusting 13 2.2
2019-Dec-05 04:25 235 6 gusting 14 2.2
2019-Dec-05 04:20 233 6 gusting 14 2.2
2019-Dec-05 04:15 232 6 gusting 12 2.2
2019-Dec-05 04:10 228 5 gusting 11 2.2
2019-Dec-05 04:05 223 4 gusting 11 2.2
2019-Dec-05 04:00 217 4 gusting 9 2.2
2019-Dec-05 03:55 218 5 gusting 9 2.8
2019-Dec-05 03:50 228 5 gusting 11 2.8
2019-Dec-05 03:45 236 5 gusting 12 2.8
2019-Dec-05 03:40 240 6 gusting 12 2.8
2019-Dec-05 03:35 242 6 gusting 12 2.2
2019-Dec-05 03:30 239 5 gusting 10 2.2
2019-Dec-05 03:25 236 5 gusting 10 2.2
2019-Dec-05 03:20 243 5 gusting 10 2.2
2019-Dec-05 03:15 243 5 gusting 12 2.2
2019-Dec-05 03:10 235 5 gusting 12 2.2
2019-Dec-05 03:05 228 5 gusting 11 2.2
2019-Dec-05 03:00 230 5 gusting 11 2.2
2019-Dec-05 02:55 232 5 gusting 10 2.8
2019-Dec-05 02:50 229 5 gusting 10 2.8
2019-Dec-05 02:45 223 5 gusting 11 2.8
2019-Dec-05 02:40 217 6 gusting 11 2.8
2019-Dec-05 02:35 214 6 gusting 11 2.8
2019-Dec-05 02:30 212 6 gusting 12 2.8
2019-Dec-05 02:25 208 6 gusting 12 2.8
2019-Dec-05 02:20 202 5 gusting 9 2.8
2019-Dec-05 02:15 198 4 gusting 9 2.8
2019-Dec-05 02:10 195 4 gusting 8 3.3
2019-Dec-05 02:05 195 4 gusting 7 3.3
2019-Dec-05 02:00 226 6 gusting 13 3.3
2019-Dec-05 01:55 246 6 gusting 13 3.3
2019-Dec-05 01:50 252 6 gusting 13 3.9
2019-Dec-05 01:45 258 7 gusting 13 3.9
2019-Dec-05 01:40 254 6 gusting 13 3.9
2019-Dec-05 01:35 250 6 gusting 13 3.9
2019-Dec-05 01:30 260 6 gusting 9 3.9
2019-Dec-05 01:25 283 7 gusting 18 3.9
2019-Dec-05 01:20 294 10 gusting 18 3.9
2019-Dec-05 01:15 295 11 gusting 18 3.9
2019-Dec-05 01:10 298 11 gusting 18 3.9
2019-Dec-05 01:05 296 12 gusting 18 3.9
2019-Dec-05 01:00 293 12 gusting 18 3.9
2019-Dec-05 00:55 292 12 gusting 19 3.9
2019-Dec-05 00:50 292 13 gusting 19 3.9
2019-Dec-05 00:45 294 12 gusting 19 3.9
2019-Dec-05 00:40 293 11 gusting 18 3.3
2019-Dec-05 00:35 286 8 gusting 18 3.3
2019-Dec-05 00:30 269 6 gusting 15 3.3
2019-Dec-05 00:25 260 6 gusting 11 3.3
2019-Dec-05 00:20 252 6 gusting 12 3.3
2019-Dec-05 00:15 242 6 gusting 12 3.3
2019-Dec-05 00:10 248 6 gusting 12 3.3
2019-Dec-05 00:05 256 6 gusting 12 3.3
2019-Dec-05 00:00 251 6 gusting 14 3.3
2019-Dec-04 23:55 247 6 gusting 16 3.3
2019-Dec-04 23:50 245 6 gusting 17 3.3
2019-Dec-04 23:45 252 7 gusting 16 2.8
2019-Dec-04 23:40 242 6 gusting 13 3.3
2019-Dec-04 23:35 238 6 gusting 13 3.3
2019-Dec-04 23:30 232 6 gusting 13 3.3
2019-Dec-04 23:25 231 6 gusting 13 3.3
2019-Dec-04 23:20 231 6 gusting 13 3.3
2019-Dec-04 23:15 229 6 gusting 11 3.3
2019-Dec-04 23:10 232 6 gusting 13 3.3
2019-Dec-04 23:05 230 5 gusting 13 3.3
2019-Dec-04 23:00 223 6 gusting 11 2.8
2019-Dec-04 22:55 224 5 gusting 13 3.3
2019-Dec-04 22:50 224 5 gusting 12 3.3
2019-Dec-04 22:45 222 4 gusting 9 3.3
2019-Dec-04 22:40 226 4 gusting 11 3.3
2019-Dec-04 22:35 230 5 gusting 11 3.3
2019-Dec-04 22:30 229 4 gusting 12 3.3
2019-Dec-04 22:25 224 3 gusting 12 3.3
2019-Dec-04 22:20 219 3 gusting 8 3.3
2019-Dec-04 22:15 212 3 gusting 6 3.3
2019-Dec-04 22:10 205 3 gusting 7 3.3
2019-Dec-04 22:05 208 3 gusting 7 3.3
2019-Dec-04 22:00 209 2 gusting 6 3.3
2019-Dec-04 21:55 206 2 gusting 6 3.3
2019-Dec-04 21:50 209 3 gusting 6 3.3
2019-Dec-04 21:45 215 3 gusting 6 3.3
2019-Dec-04 21:40 218 3 gusting 6 3.3
2019-Dec-04 21:35 220 3 gusting 6 3.3
2019-Dec-04 21:30 219 3 gusting 8 3.3
2019-Dec-04 21:25 214 2 gusting 8 3.3
2019-Dec-04 21:20 215 2 gusting 7 3.3
2019-Dec-04 21:15 226 3 gusting 7 3.3
2019-Dec-04 21:10 232 2 gusting 7 3.3
2019-Dec-04 21:05 228 2 gusting 7 3.3
2019-Dec-04 21:00 227 3 gusting 7 3.3
2019-Dec-04 20:55 233 3 gusting 6 3.3
2019-Dec-04 20:50 239 3 gusting 7 3.3
2019-Dec-04 20:45 240 3 gusting 7 3.3
2019-Dec-04 20:40 238 3 gusting 10 3.3
2019-Dec-04 20:35 234 3 gusting 10 3.3
2019-Dec-04 20:30 235 2 gusting 6
2019-Dec-04 20:25 236 3 gusting 7 3.3
2019-Dec-04 20:20 243 4 gusting 9 3.3
2019-Dec-04 20:15 250 4 gusting 9 3.3
2019-Dec-04 20:10 248 4 gusting 8 3.3
2019-Dec-04 20:05 245 3 gusting 7 3.3
2019-Dec-04 20:00 251 4 gusting 9 3.3
2019-Dec-04 19:55 253 4 gusting 9 3.9
2019-Dec-04 19:50 251 5 gusting 8 3.9
2019-Dec-04 19:45 249 4 gusting 8 3.9
2019-Dec-04 19:40 247 3 gusting 8 3.9
2019-Dec-04 19:35 254 2 gusting 7 3.9
2019-Dec-04 19:30 254 4 gusting 11 3.9
2019-Dec-04 19:25 258 5 gusting 12 3.9
2019-Dec-04 19:20 261 4 gusting 12 3.9
2019-Dec-04 19:15 259 4 gusting 10 3.9
2019-Dec-04 19:10 270 6 gusting 10 3.9
2019-Dec-04 19:05 277 7 gusting 11 3.9
2019-Dec-04 19:00 277 7 gusting 13 3.9
2019-Dec-04 18:55 273 7 gusting 13 3.9
2019-Dec-04 18:50 269 7 gusting 11 3.9
2019-Dec-04 18:45 269 7 gusting 13 3.9
2019-Dec-04 18:40 273 7 gusting 13 3.9
2019-Dec-04 18:35 270 6 gusting 13 3.9
2019-Dec-04 18:30 329 6 gusting 13 3.9
2019-Dec-04 18:25 262 6 gusting 12 3.9
2019-Dec-04 18:20 260 6 gusting 13 3.9
2019-Dec-04 18:15 264 6 gusting 13 3.9
2019-Dec-04 18:10 265 6 gusting 12 3.9
2019-Dec-04 18:05 266 6 gusting 13 3.9
2019-Dec-04 18:00 265 6 gusting 13 3.9
2019-Dec-04 17:55 260 6 gusting 13 3.9
2019-Dec-04 17:50 263 6 gusting 14 3.9
2019-Dec-04 17:45 265 5 gusting 14 3.9
2019-Dec-04 17:40 271 6 gusting 12 3.9
2019-Dec-04 17:35 272 6 gusting 12 3.9
2019-Dec-04 17:30 272 6 gusting 12 3.9
2019-Dec-04 17:25 271 6 gusting 12 3.9
2019-Dec-04 17:20 270 6 gusting 11 3.9
2019-Dec-04 17:15 273 6 gusting 12 3.9
2019-Dec-04 17:10 272 6 gusting 12 3.9
2019-Dec-04 17:05 273 6 gusting 10 3.9
2019-Dec-04 17:00 277 6 gusting 10 3.9
2019-Dec-04 16:55 271 5 gusting 10 3.9
2019-Dec-04 16:50 269 4 gusting 8 3.9
2019-Dec-04 16:45 267 4 gusting 9 3.3
2019-Dec-04 16:40 265 4 gusting 9 3.3
2019-Dec-04 16:35 257 5 gusting 12 3.3
2019-Dec-04 16:30 256 5 gusting 12 3.3
2019-Dec-04 16:25 265 4 gusting 9 3.3
2019-Dec-04 16:20 261 3 gusting 7 3.3
2019-Dec-04 16:15 243 2 gusting 6 3.3
2019-Dec-04 16:10 238 2 gusting 6 3.3
2019-Dec-04 16:05 231 2 gusting 6 2.8
2019-Dec-04 16:00 226 2 gusting 6 2.8
2019-Dec-04 15:55 227 1 gusting 6 2.8
2019-Dec-04 15:50 235 1 gusting 5 2.8
2019-Dec-04 15:45 234 2 gusting 6 2.8
2019-Dec-04 15:40 238 2 gusting 6 2.8
2019-Dec-04 15:35 236 2 gusting 7 2.2
2019-Dec-04 15:30 231 3 gusting 7 2.2
2019-Dec-04 15:25 231 2 gusting 6 2.2
2019-Dec-04 15:20 226 3 gusting 6 2.2
2019-Dec-04 15:15 220 3 gusting 6 2.2
2019-Dec-04 15:10 217 2 gusting 6 2.2
2019-Dec-04 15:05 215 3 gusting 7 2.2
2019-Dec-04 15:00 213 3 gusting 7 2.2
2019-Dec-04 14:55 216 2 gusting 7 2.2
2019-Dec-04 14:50 213 2 gusting 6 1.7
2019-Dec-04 14:45 203 3 gusting 7 1.7
2019-Dec-04 14:40 205 3 gusting 7 1.7
2019-Dec-04 14:35 208 2 gusting 7 1.7
2019-Dec-04 14:30 213 2 gusting 7 1.1
2019-Dec-04 14:25 215 3 gusting 8 1.1
2019-Dec-04 14:20 211 4 gusting 9 1.1
2019-Dec-04 14:15 206 4 gusting 9 1.1
2019-Dec-04 14:10 204 5 gusting 9 1.1
2019-Dec-04 14:05 203 5 gusting 9 1.1
2019-Dec-04 14:00 207 5 gusting 9 1.1
2019-Dec-04 13:55 208 4 gusting 9 0.6
2019-Dec-04 13:50 199 4 gusting 10 0.6
2019-Dec-04 13:45 195 5 gusting 10 0.6
2019-Dec-04 13:40 195 6 gusting 11 0.6
2019-Dec-04 13:35 198 6 gusting 11 0.6
2019-Dec-04 13:30 192 5 gusting 9 -0.0
2019-Dec-04 13:25 188 5 gusting 10 -0.0
2019-Dec-04 13:20 186 5 gusting 10 -0.0
2019-Dec-04 13:15 183 6 gusting 10 -0.0
2019-Dec-04 13:10 179 5 gusting 10 -0.0
2019-Dec-04 13:05 174 5 gusting 8 -0.0
2019-Dec-04 13:00 174 6 gusting 9 -0.0
2019-Dec-04 12:55 175 6 gusting 9 -0.0
2019-Dec-04 12:50 176 6 gusting 10 -0.0
2019-Dec-04 12:45 176 6 gusting 10 -0.0
2019-Dec-04 12:40 173 6 gusting 9 -0.0
2019-Dec-04 12:35 172 6 gusting 9 -0.0
2019-Dec-04 12:30 174 6 gusting 9 -0.0
2019-Dec-04 12:25 177 6 gusting 9 -0.0
2019-Dec-04 12:20 179 5 gusting 8 -0.0
2019-Dec-04 12:15 181 5 gusting 9 -0.0
2019-Dec-04 12:10 185 5 gusting 9 -0.0
2019-Dec-04 12:05 188 5 gusting 8 -0.0
2019-Dec-04 12:00 191 4 gusting 8 -0.0
2019-Dec-04 11:55 185 5 gusting 7 0.6
2019-Dec-04 11:50 183 5 gusting 8 0.6
2019-Dec-04 11:45 177 5 gusting 8 0.6
2019-Dec-04 11:40 175 5 gusting 8 0.6
2019-Dec-04 11:35 184 5 gusting 8 0.6
2019-Dec-04 11:30 193 4 gusting 7 1.1
2019-Dec-04 11:25 195 4 gusting 6 1.1
2019-Dec-04 11:20 192 3 gusting 6 1.1
2019-Dec-04 11:15 188 3 gusting 6 1.1
2019-Dec-04 11:10 185 3 gusting 6 1.7
2019-Dec-04 11:05 205 2 gusting 6 1.7
2019-Dec-04 11:00 273 2 gusting 6 1.7
2019-Dec-04 10:55 286 4 gusting 8 1.7
2019-Dec-04 10:50 286 5 gusting 9 1.7
2019-Dec-04 10:45 271 5 gusting 9 1.7
2019-Dec-04 10:40 279 5 gusting 13 1.7
2019-Dec-04 10:35 283 5 gusting 13 1.7
2019-Dec-04 10:30 291 6 gusting 10 1.7
2019-Dec-04 10:25 288 6 gusting 10 1.7
2019-Dec-04 10:20 292 6 gusting 10 1.7
2019-Dec-04 10:15 294 6 gusting 10 1.7
2019-Dec-04 10:10 293 6 gusting 10 1.7
2019-Dec-04 10:05 292 6 gusting 10 1.7
2019-Dec-04 10:00 285 6 gusting 10 1.7
2019-Dec-04 09:55 279 5 gusting 10 1.7
2019-Dec-04 09:50 278 5 gusting 10 1.7
2019-Dec-04 09:45 282 6 gusting 11 1.7
2019-Dec-04 09:40 283 6 gusting 11 1.7
2019-Dec-04 09:35 285 7 gusting 13 1.7
2019-Dec-04 09:30 292 8 gusting 13 1.7
2019-Dec-04 09:25 294 8 gusting 13 1.7
2019-Dec-04 09:20 294 8 gusting 13 1.7
2019-Dec-04 09:15 300 9 gusting 14 1.1
2019-Dec-04 09:10 304 9 gusting 14 1.1
2019-Dec-04 09:05 306 8 gusting 13 1.1
2019-Dec-04 09:00 303 8 gusting 13 1.1
2019-Dec-04 08:55 300 7 gusting 13 1.1
2019-Dec-04 08:50 297 7 gusting 13 1.1
2019-Dec-04 08:45 300 7 gusting 12 1.1
2019-Dec-04 08:40 300 10 gusting 13 1.1
2019-Dec-04 08:35 303 10 gusting 14 1.1
2019-Dec-04 08:30 306 11 gusting 15 1.1
2019-Dec-04 08:25 305 12 gusting 17 1.1
2019-Dec-04 08:20 307 13 gusting 17 1.1
2019-Dec-04 08:15 308 13 gusting 17 1.1
2019-Dec-04 08:10 310 13 gusting 16 1.1
2019-Dec-04 08:05 311 14 gusting 19 1.1
2019-Dec-04 08:00 310 14 gusting 19 1.1
2019-Dec-04 07:55 309 13 gusting 19 1.1
2019-Dec-04 07:50 309 13 gusting 18 1.1
2019-Dec-04 07:45 308 13 gusting 18 1.1
2019-Dec-04 07:40 307 14 gusting 19 1.1
2019-Dec-04 07:35 309 16 gusting 21 1.1
2019-Dec-04 07:30 310 17 gusting 21 1.1
2019-Dec-04 07:25 309 16 gusting 21 1.1
2019-Dec-04 07:20 305 15 gusting 21 1.1
2019-Dec-04 07:15 303 15 gusting 19 1.1
2019-Dec-04 07:10 304 16 gusting 21 1.1
2019-Dec-04 07:05 305 16 gusting 23 1.1
2019-Dec-04 07:00 304 16 gusting 23 1.1
2019-Dec-04 06:55 302 15 gusting 21 1.7
2019-Dec-04 06:50 302 14 gusting 21 1.7
2019-Dec-04 06:45 300 14 gusting 21 1.7
2019-Dec-04 06:40 299 13 gusting 21 1.7
2019-Dec-04 06:35 300 13 gusting 19 1.7
2019-Dec-04 06:30 300 13 gusting 20 1.7
2019-Dec-04 06:25 300 12 gusting 20 1.7
2019-Dec-04 06:20 299 11 gusting 16 1.7
2019-Dec-04 06:15 299 12 gusting 16 1.7
2019-Dec-04 06:10 300 11 gusting 18 1.7
2019-Dec-04 06:05 302 12 gusting 19 1.7
2019-Dec-04 06:00 281 10 gusting 19 1.1
2019-Dec-04 05:55 301 12 gusting 19 1.1
2019-Dec-04 05:50 302 12 gusting 19 1.1
2019-Dec-04 05:45 301 13 gusting 18 1.1
2019-Dec-04 05:40 303 12 gusting 17 1.1
2019-Dec-04 05:35 303 12 gusting 17 1.1
2019-Dec-04 05:30 306 12 gusting 16 0.6
2019-Dec-04 05:25 306 11 gusting 15 1.1
2019-Dec-04 05:20 301 10 gusting 13 1.1
2019-Dec-04 05:15 298 10 gusting 15 1.1
2019-Dec-04 05:10 299 13 gusting 20 1.1
2019-Dec-04 05:05 303 14 gusting 22 1.1
2019-Dec-04 05:00 304 16 gusting 23 1.1